Location: Praha
(50.0755°N, 14.4378°E)
Time: 17:03:58
(UTC+01:00)

ISS - Pass Details

Date: 23 January 2020
Orbit: 415 x 422 km, 51.6° (Epoch: 26 February)

Event Time Altitude Azimuth Distance (km) Brightness Sun altitude
Rises 17:31:40 0° 202° (SSW) 2,367 0.7 -8.3°
Reaches altitude 10° 17:34:18 10° 180° (S) 1,506 -0.7 -8.7°
Maximum altitude 17:36:30 16° 139° (SE) 1,179 -1.7 -9.0°
Enters shadow 17:38:39 10° 99° (E) 1,494 -1.5 -9.3°
